Weather History for RJOO - July, 2012

Change the Weather History Date:

Tuesday, July 3, 2012

  Actual Average Record
Temperature  
Mean Temperature 74 °F -  
Max Temperature 78 °F 87 °F 93 °F (1998)
Min Temperature 71 °F 72 °F 66 °F (2003)
Cooling Degree Days 10    
Growing Degree Days 24 (Base 50)    
Moisture  
Dew Point 71 °F    
Average Humidity 93    
Maximum Humidity 100    
Minimum Humidity 78    
Precipitation  
Precipitation 0.00 in - - ()
Sea Level Pressure  
Sea Level Pressure 29.56 in    
Wind  
Wind Speed 4 mph ()    
Max Wind Speed 8 mph    
Max Gust Speed 20 mph    
Visibility 3.6 miles    
Events Rain , Thunderstorm    
Averages and records for this station are not official NWS values.
T = Trace of Precipitation, MM = Missing Value Source: Averaged Metar Reports

Daily Weather History Graph

Daily Weather History Graph

Search for Another Location

Airport or City:

Trip Planner

Search our weather history database for the weather conditions in past years. The results will help you decide how hot, cold, wet, or windy it might be!

Date:

Astronomy

Jul. 03, 2012 Rise Set
Actual Time 4:49 AM JST 7:15 PM JST
Civil Twilight 4:19 AM JST 7:44 PM JST
Nautical Twilight 3:43 AM JST 8:21 PM JST
Astronomical Twilight 3:03 AM JST 9:00 PM JST
Moon 6:40 PM JST (7/3) 3:59 AM JST (7/3)
Length of Visible Light 15h 24m
Length of Day
14h 26m
Waxing Gibbous, 99% of the Moon is Illuminated
Jul 3
Waxing Gibbous
Jul 4
Full
Jul 11
Last Quarter
Jul 19
New
Jul 26
First Quarter

Hourly Weather History & Observations

Time (JST) Temp. Dew Point Humidity Pressure Visibility Wind Dir Wind Speed Gust Speed Precip Events Conditions
5:00 AM 73.4 °F 69.8 °F 88% 29.59 in 6.2 mi Variable 2.3 mph - N/A Rain Light Rain Showers
5:14 AM 73.4 °F 69.8 °F 88% 29.59 in 3.1 mi Variable 1.2 mph - N/A Rain Rain Showers
5:21 AM 73.4 °F 69.8 °F 88% 29.59 in 3.1 mi Variable 1.2 mph - N/A Rain Rain Showers
5:24 AM 73.4 °F 69.8 °F 88% 29.59 in 2.8 mi Variable 1.2 mph - N/A Rain Rain Showers
5:40 AM 73.4 °F 71.6 °F 94% 29.59 in 0.9 mi Variable 2.3 mph - N/A Rain Heavy Rain Showers
5:42 AM 71.6 °F 69.8 °F 94% 29.59 in 0.9 mi Variable 2.3 mph - N/A Rain Heavy Rain Showers
5:46 AM 71.6 °F 69.8 °F 94% 29.59 in 0.9 mi Variable 2.3 mph - N/A Rain Heavy Rain Showers
5:50 AM 71.6 °F 71.6 °F 100% 29.59 in 0.9 mi East 3.5 mph - N/A Rain Heavy Rain Showers
6:00 AM 71.6 °F 69.8 °F 94% 29.56 in 2.5 mi East 5.8 mph - N/A Rain Heavy Rain Showers
6:08 AM 71.6 °F 71.6 °F 100% 29.56 in 5.0 mi East 8.1 mph - N/A Rain Rain Showers
6:24 AM 71.6 °F 69.8 °F 94% 29.56 in 6.2 mi NE 5.8 mph - N/A Rain Light Rain Showers
7:00 AM 73.4 °F 69.8 °F 88% 29.56 in 6.2 mi East 6.9 mph - N/A Rain Light Rain Showers
8:00 AM 73.4 °F 69.8 °F 88% 29.56 in 6.2 mi ENE 6.9 mph - N/A Rain Light Rain Showers
8:35 AM 73.4 °F 69.8 °F 88% 29.56 in 4.3 mi ENE 4.6 mph - N/A Rain , Thunderstorm Light Thunderstorms and Rain
8:49 AM 73.4 °F 69.8 °F 88% 29.56 in 2.8 mi Variable 2.3 mph - N/A Rain Rain Showers
9:00 AM 71.6 °F 69.8 °F 94% 29.59 in 0.6 mi Variable 3.5 mph - N/A Rain Heavy Rain Showers
9:11 AM 71.6 °F 71.6 °F 100% 29.59 in 0.9 mi Calm Calm - N/A Rain , Thunderstorm Heavy Thunderstorms and Rain
9:17 AM 71.6 °F 71.6 °F 100% 29.59 in 2.5 mi Variable 2.3 mph - N/A Rain , Thunderstorm Heavy Thunderstorms and Rain
9:24 AM 73.4 °F 71.6 °F 94% 29.59 in 2.5 mi NNW 4.6 mph - N/A Rain , Thunderstorm Thunderstorms and Rain
9:31 AM 73.4 °F 71.6 °F 94% 29.59 in 3.1 mi NNW 4.6 mph - N/A Rain Rain Showers
9:50 AM 73.4 °F 71.6 °F 94% 29.59 in 4.3 mi NNE 3.5 mph - N/A Rain Light Rain Showers
10:00 AM 73.4 °F 71.6 °F 94% 29.59 in 4.3 mi Variable 2.3 mph - N/A Rain Light Rain Showers
10:23 AM 73.4 °F 71.6 °F 94% 29.56 in 6.2 mi Variable 1.2 mph - N/A Rain Rain Showers
10:32 AM 73.4 °F 71.6 °F 94% 29.56 in 2.5 mi ESE 4.6 mph - N/A Rain Heavy Rain Showers
10:33 AM 73.4 °F 71.6 °F 94% 29.56 in 2.2 mi ESE 5.8 mph - N/A Rain Heavy Rain Showers
10:36 AM 73.4 °F 71.6 °F 94% 29.56 in 1.2 mi East 5.8 mph - N/A Rain Heavy Rain Showers
10:37 AM 73.4 °F 71.6 °F 94% 29.56 in 1.2 mi East 4.6 mph - N/A Rain Heavy Rain Showers
10:40 AM 73.4 °F 71.6 °F 94% 29.56 in 0.9 mi ENE 4.6 mph - N/A Rain Heavy Rain Showers
10:41 AM 73.4 °F 71.6 °F 94% 29.56 in 0.9 mi ENE 4.6 mph - N/A Rain Heavy Rain Showers
10:46 AM 73.4 °F 71.6 °F 94% 29.56 in 1.9 mi NE 5.8 mph - N/A Rain Rain Showers
11:00 AM 71.6 °F 69.8 °F 94% 29.56 in 2.8 mi NE 8.1 mph - N/A Rain Rain Showers
11:09 AM 71.6 °F 69.8 °F 94% 29.56 in 2.5 mi ENE 8.1 mph - N/A Rain Heavy Rain Showers
11:12 AM 71.6 °F 69.8 °F 94% 29.56 in 1.9 mi ENE 6.9 mph - N/A Rain Heavy Rain Showers
11:14 AM 71.6 °F 69.8 °F 94% 29.56 in 1.9 mi ENE 5.8 mph - N/A Rain Heavy Rain Showers
11:17 AM 71.6 °F 69.8 °F 94% 29.56 in 1.9 mi ENE 5.8 mph - N/A Rain Heavy Rain Showers
11:31 AM 71.6 °F 71.6 °F 100% 29.53 in 2.8 mi NE 8.1 mph - N/A Rain Rain Showers
11:36 AM 71.6 °F 71.6 °F 100% 29.53 in 3.1 mi NE 6.9 mph - N/A Rain Rain Showers
11:49 AM 71.6 °F 69.8 °F 94% 29.53 in 2.8 mi NE 5.8 mph - N/A Rain Heavy Rain Showers
12:00 PM 71.6 °F 71.6 °F 100% 29.53 in 2.2 mi Variable 2.3 mph - N/A Rain Heavy Rain Showers
12:08 PM 71.6 °F 69.8 °F 94% 29.53 in 3.1 mi East 3.5 mph - N/A Rain Rain Showers
12:15 PM 73.4 °F 71.6 °F 94% 29.53 in 4.3 mi Variable 2.3 mph - N/A Rain Rain Showers
12:32 PM 73.4 °F 71.6 °F 94% 29.53 in 6.2 mi ESE 4.6 mph - N/A Rain Light Rain Showers
1:00 PM 73.4 °F 71.6 °F 94% 29.53 in 6.2 mi Variable 2.3 mph - N/A Rain Light Rain Showers
1:48 PM 75.2 °F 71.6 °F 89% 29.53 in 6.2 mi East 3.5 mph - N/A Rain Light Rain Showers
2:00 PM 75.2 °F 71.6 °F 89% 29.53 in 6.2 mi Variable 2.3 mph - N/A Rain Light Rain Showers
3:00 PM 75.2 °F 73.4 °F 94% 29.50 in 6.2 mi East 4.6 mph - N/A Rain Light Rain Showers
4:00 PM 77.0 °F 73.4 °F 89% 29.50 in 6.2 mi Variable 1.2 mph - N/A   Mostly Cloudy
4:22 PM 77.0 °F 75.2 °F 94% 29.50 in 6.2 mi Variable 2.3 mph - N/A   Mostly Cloudy
5:00 PM 78.8 °F 75.2 °F 89% 29.50 in 6.2 mi Variable 2.3 mph - N/A   Mostly Cloudy
6:00 PM 78.8 °F 71.6 °F 78% 29.53 in 6.2 mi West 3.5 mph - N/A   Mostly Cloudy
7:00 PM 77.0 °F 71.6 °F 83% 29.56 in 6.2 mi SW 6.9 mph - N/A   Mostly Cloudy
7:26 PM 77.0 °F 71.6 °F 83% 29.56 in 6.2 mi WSW 6.9 mph - N/A Rain Rain Showers
7:46 PM 75.2 °F 71.6 °F 89% 29.56 in 2.8 mi West 6.9 mph - N/A Rain Heavy Rain Showers
7:49 PM 73.4 °F 69.8 °F 88% 29.56 in 1.9 mi NW 8.1 mph 19.6 mph N/A Rain Heavy Rain Showers
8:00 PM 73.4 °F 71.6 °F 94% 29.56 in 6.2 mi NNW 5.8 mph - N/A Rain Rain Showers
8:03 PM 73.4 °F 71.6 °F 94% 29.56 in 6.2 mi NNW 4.6 mph - N/A Rain Rain Showers
8:14 PM 73.4 °F 71.6 °F 94% 29.56 in 6.2 mi Variable 2.3 mph - N/A   Mostly Cloudy